| time (UTC) | temp F | wind direction | speed MPH | gust MPH | rain 1hr in | rain 24hr in | rain mn in | humidity % | barometer mb |
| 20260905060107 | 58 | 0 | 0.0 | 0.0 | 0.00 | 0.00 | 0.00 | 36 | 1021.9 |
| 20260905054604 | 58 | 0 | 0.0 | 0.0 | 0.00 | 0.00 | 0.00 | 35 | 1021.8 |
| 20260905053059 | 58 | 0 | 0.0 | 0.0 | 0.00 | 0.00 | 0.00 | 35 | 1021.8 |
| 20260905051606 | 58 | 0 | 0.0 | 0.0 | 0.00 | 0.00 | 0.00 | 35 | 1021.7 |
| 20260905044602 | 59 | 0 | 0.0 | 0.0 | 0.00 | 0.00 | 0.00 | 36 | 1021.5 |
| 20260905043058 | 59 | 0 | 0.0 | 4.0 | 0.00 | 0.00 | 0.00 | 37 | 1021.5 |
| 20260905041607 | 59 | 136 | 4.0 | 7.0 | 0.00 | 0.00 | 0.00 | 38 | 1021.6 |
| 20260905040106 | 59 | 153 | 1.0 | 6.0 | 0.00 | 0.00 | 0.00 | 38 | 1021.6 |
| 20260905034604 | 59 | 159 | 2.0 | 8.0 | 0.00 | 0.00 | 0.00 | 37 | 1021.5 |
| 20260905033113 | 59 | 151 | 3.0 | 7.0 | 0.00 | 0.00 | 0.00 | 38 | 1021.4 |
| 20260905031614 | 59 | 160 | 3.0 | 7.0 | 0.00 | 0.00 | 0.00 | 37 | 1021.1 |
| 20260905030101 | 60 | 167 | 4.0 | 7.0 | 0.00 | 0.00 | 0.00 | 37 | 1021.1 |
| 20260905024604 | 60 | 159 | 3.0 | 6.0 | 0.00 | 0.00 | 0.00 | 34 | 1021.1 |
| 20260905023105 | 61 | 160 | 3.0 | 7.0 | 0.00 | 0.00 | 0.00 | 37 | 1021.1 |
| 20260905021603 | 61 | 109 | 2.0 | 5.0 | 0.00 | 0.00 | 0.00 | 40 | 1021.0 |
| 20260905020105 | 62 | 132 | 2.0 | 4.0 | 0.00 | 0.00 | 0.00 | 40 | 1021.1 |
| 20260905014602 | 64 | 0 | 0.0 | 4.0 | 0.00 | 0.00 | 0.00 | 35 | 1021.1 |
| 20260905013106 | 64 | 165 | 1.0 | 7.0 | 0.00 | 0.00 | 0.00 | 35 | 1021.1 |
| 20260905011609 | 65 | 161 | 2.0 | 6.0 | 0.00 | 0.00 | 0.00 | 32 | 1021.1 |
| 20260905010109 | 66 | 0 | 0.0 | 5.0 | 0.00 | 0.00 | 0.00 | 33 | 1021.1 |
| 20260905004554 | 66 | 0 | 1.0 | 4.0 | 0.00 | 0.00 | 0.00 | 34 | 1021.0 |
| 20260905003101 | 66 | 165 | 2.0 | 6.0 | 0.00 | 0.00 | 0.00 | 37 | 1021.1 |
| 20260905001557 | 67 | 0 | 0.0 | 6.0 | 0.00 | 0.00 | 0.00 | 40 | 1021.1 |
| 20260905000056 | 67 | 0 | 1.0 | 7.0 | 0.00 | 0.00 | 0.00 | 43 | 1021.3 |
| 20260904234555 | 68 | 0 | 3.0 | 7.0 | 0.00 | 0.00 | 0.00 | 39 | 1021.2 |
| 20260904233102 | 69 | 0 | 1.0 | 7.0 | 0.00 | 0.00 | 0.00 | 49 | 1021.3 |
| 20260904231602 | 71 | 144 | 1.0 | 7.0 | 0.00 | 0.00 | 0.00 | 45 | 1021.3 |
| 20260904230107 | 72 | 0 | 0.0 | 5.0 | 0.00 | 0.00 | 0.00 | 40 | 1021.4 |
| 20260904224612 | 71 | 150 | 4.0 | 12.0 | 0.00 | 0.00 | 0.00 | 35 | 1021.5 |
| 20260904223101 | 72 | 130 | 2.0 | 8.0 | 0.00 | 0.00 | 0.00 | 34 | 1021.6 |
| 20260904221604 | 72 | 246 | 2.0 | 10.0 | 0.00 | 0.00 | 0.00 | 37 | 1021.6 |
| 20260904220112 | 73 | 168 | 2.0 | 10.0 | 0.00 | 0.00 | 0.00 | 37 | 1021.7 |
| 20260904214556 | 72 | 0 | 2.0 | 8.0 | 0.00 | 0.00 | 0.00 | 35 | 1021.8 |
| 20260904213106 | 72 | 96 | 5.0 | 9.0 | 0.00 | 0.00 | 0.00 | 36 | 1021.8 |
| 20260904211600 | 72 | 171 | 5.0 | 10.0 | 0.00 | 0.00 | 0.00 | 35 | 1021.8 |
| 20260904210111 | 72 | 155 | 4.0 | 10.0 | 0.00 | 0.00 | 0.00 | 35 | 1021.8 |
| 20260904204558 | 72 | 119 | 4.0 | 10.0 | 0.00 | 0.00 | 0.00 | 30 | 1021.7 |
| 20260904203058 | 73 | 188 | 5.0 | 11.0 | 0.00 | 0.00 | 0.00 | 32 | 1021.6 |
| 20260904201606 | 73 | 334 | 1.0 | 8.0 | 0.00 | 0.00 | 0.00 | 33 | 1021.5 |
| 20260904200106 | 74 | 28 | 4.0 | 11.0 | 0.00 | 0.00 | 0.00 | 26 | 1021.6 |
| 20260904194557 | 74 | 119 | 2.0 | 7.0 | 0.00 | 0.00 | 0.00 | 22 | 1021.6 |
| 20260904193103 | 73 | 186 | 2.0 | 6.0 | 0.00 | 0.00 | 0.00 | 32 | 1021.7 |
| 20260904191621 | 75 | 336 | 2.0 | 7.0 | 0.00 | 0.00 | 0.00 | 32 | 1021.9 |
| 20260904184606 | 74 | 0 | 1.0 | 8.0 | 0.00 | 0.00 | 0.00 | 31 | 1022.0 |
| 20260904183057 | 74 | 0 | 1.0 | 6.0 | 0.00 | 0.00 | 0.00 | 29 | 1022.0 |
| 20260904181604 | 73 | 0 | 1.0 | 8.0 | 0.00 | 0.00 | 0.00 | 26 | 1021.8 |
| 20260904180101 | 72 | 288 | 2.0 | 7.0 | 0.00 | 0.00 | 0.00 | 29 | 1021.8 |
| 20260904174605 | 72 | 0 | 3.0 | 9.0 | 0.00 | 0.00 | 0.00 | 27 | 1021.7 |
| 20260904173104 | 71 | 170 | 5.0 | 8.0 | 0.00 | 0.00 | 0.00 | 25 | 1021.7 |
| 20260904171602 | 70 | 0 | 1.0 | 7.0 | 0.00 | 0.00 | 0.00 | 29 | 1021.6 |
| 20260904170100 | 70 | 0 | 2.0 | 4.0 | 0.00 | 0.00 | 0.00 | 29 | 1021.5 |
| 20260904164604 | 70 | 294 | 0.0 | 4.0 | 0.00 | 0.00 | 0.00 | 29 | 1021.3 |
| 20260904163101 | 68 | 178 | 1.0 | 5.0 | 0.00 | 0.00 | 0.00 | 31 | 1021.1 |
| 20260904161600 | 67 | 311 | 2.0 | 6.0 | 0.00 | 0.00 | 0.00 | 33 | 1020.8 |
| 20260904160108 | 66 | 0 | 0.0 | 7.0 | 0.00 | 0.00 | 0.00 | 35 | 1020.6 |
| 20260904154603 | 65 | 0 | 0.0 | 0.0 | 0.00 | 0.00 | 0.00 | 36 | 1020.5 |
| 20260904153100 | 63 | 0 | 0.0 | 0.0 | 0.00 | 0.00 | 0.00 | 37 | 1020.4 |
| 20260904151559 | 61 | 0 | 0.0 | 3.0 | 0.00 | 0.00 | 0.00 | 38 | 1020.3 |
| 20260904150107 | 60 | 0 | 0.0 | 0.0 | 0.00 | 0.00 | 0.00 | 38 | 1020.2 |
| 20260904144604 | 58 | 0 | 0.0 | 0.0 | 0.00 | 0.00 | 0.00 | 37 | 1019.9 |
| 20260904143102 | 57 | 0 | 0.0 | 0.0 | 0.00 | 0.00 | 0.00 | 36 | 1019.8 |
| 20260904141556 | 56 | 0 | 0.0 | 0.0 | 0.00 | 0.00 | 0.00 | 33 | 1019.8 |
| 20260904140108 | 56 | 0 | 0.0 | 2.0 | 0.00 | 0.00 | 0.00 | 33 | 1019.7 |
| 20260904134604 | 56 | 0 | 0.0 | 4.0 | 0.00 | 0.00 | 0.00 | 27 | 1019.5 |
| 20260904133105 | 56 | 0 | 0.0 | 0.0 | 0.00 | 0.00 | 0.00 | 33 | 1019.5 |
| 20260904131558 | 56 | 0 | 0.0 | 0.0 | 0.00 | 0.00 | 0.00 | 28 | 1019.3 |
| 20260904130057 | 56 | 0 | 0.0 | 0.0 | 0.00 | 0.00 | 0.00 | 26 | 1019.2 |
| 20260904124617 | 56 | 0 | 0.0 | 0.0 | 0.00 | 0.00 | 0.00 | 30 | 1019.0 |
| 20260904123058 | 56 | 0 | 0.0 | 0.0 | 0.00 | 0.00 | 0.00 | 26 | 1019.3 |
| 20260904121602 | 56 | 0 | 0.0 | 0.0 | 0.00 | 0.00 | 0.00 | 27 | 1019.1 |
| 20260904114608 | 55 | 0 | 0.0 | 0.0 | 0.00 | 0.00 | 0.00 | 25 | 1019.3 |
| 20260904113057 | 56 | 0 | 0.0 | 3.0 | 0.00 | 0.00 | 0.00 | 25 | 1019.3 |
| 20260904111603 | 56 | 0 | 0.0 | 5.0 | 0.00 | 0.00 | 0.00 | 21 | 1019.3 |
| 20260904110100 | 56 | 150 | 2.0 | 6.0 | 0.00 | 0.00 | 0.00 | 22 | 1019.3 |
| 20260904104601 | 56 | 137 | 1.0 | 4.0 | 0.00 | 0.00 | 0.00 | 26 | 1019.1 |
| 20260904103107 | 56 | 139 | 1.0 | 7.0 | 0.00 | 0.00 | 0.00 | 31 | 1018.9 |
| 20260904101558 | 56 | 137 | 2.0 | 8.0 | 0.00 | 0.00 | 0.00 | 39 | 1019.0 |
| 20260904100110 | 56 | 168 | 2.0 | 7.0 | 0.00 | 0.00 | 0.00 | 38 | 1018.9 |
| 20260904094558 | 56 | 138 | 1.0 | 5.0 | 0.00 | 0.00 | 0.00 | 35 | 1018.9 |
| 20260904093057 | 56 | 130 | 2.0 | 7.0 | 0.00 | 0.00 | 0.00 | 39 | 1019.1 |
| 20260904091604 | 56 | 186 | 3.0 | 7.0 | 0.00 | 0.00 | 0.00 | 46 | 1019.1 |
| 20260904090100 | 56 | 140 | 3.0 | 9.0 | 0.00 | 0.00 | 0.00 | 49 | 1019.3 |
| 20260904084559 | 56 | 153 | 2.0 | 7.0 | 0.00 | 0.00 | 0.00 | 48 | 1019.3 |
| 20260904083107 | 56 | 143 | 3.0 | 7.0 | 0.00 | 0.00 | 0.00 | 48 | 1019.5 |
| 20260904081602 | 56 | 186 | 2.0 | 8.0 | 0.00 | 0.00 | 0.00 | 48 | 1019.6 |
| 20260904080059 | 56 | 133 | 2.0 | 6.0 | 0.00 | 0.00 | 0.00 | 49 | 1019.6 |
| 20260904074614 | 56 | 149 | 3.0 | 8.0 | 0.00 | 0.00 | 0.00 | 49 | 1019.5 |
| 20260904073105 | 56 | 135 | 3.0 | 9.0 | 0.00 | 0.00 | 0.00 | 49 | 1019.8 |
| 20260904071605 | 56 | 144 | 3.0 | 8.0 | 0.00 | 0.00 | 0.00 | 49 | 1019.8 |
| 20260904070100 | 56 | 133 | 3.0 | 6.0 | 0.00 | 0.00 | 0.00 | 49 | 1019.8 |
| 20260904064558 | 57 | 0 | 0.0 | 0.0 | 0.00 | 0.00 | 0.00 | 47 | 1019.6 |
| 20260904063107 | 58 | 0 | 0.0 | 0.0 | 0.00 | 0.00 | 0.00 | 43 | 1019.6 |
| 20260904061606 | 58 | 0 | 0.0 | 0.0 | 0.00 | 0.00 | 0.00 | 41 | 1019.8 |